Simultaneous Nadir Overpasses (SNOs) Predictions

Prediction of SNOs between TERRA and METOP-C Satellite Orbit:

Table of predicted SNOs for the next 14.0 days since TLE Epoch: 8/22/2020
Index Date (TERRA) Time (TERRA) Lat,Lon (TERRA) SZA (TERRA ) Date (METOP-C) Time (METOP-C) Lat,Lon (METOP-C) SZA (METOP-C ) Distance(km) Time Diff (sec)
1 08/23/2020 23:59:01 -81.31, 47.78 106.90 08/23/2020 23:58:01 -81.31, 47.81 106.92 0.56 60
2 08/24/2020 00:48:27 81.32,-144.44 73.14 08/24/2020 00:48:41 81.32,-144.30 73.17 2.35 14
3 08/26/2020 19:33:15 -81.32, 114.31 105.89 08/26/2020 19:32:21 -81.31, 114.22 105.93 1.76 54
4 08/26/2020 20:22:41 81.33, -77.93 74.14 08/26/2020 20:23:01 81.32, -77.95 74.15 0.68 20
5 08/29/2020 15:07:31 -81.30,-179.58 104.92 08/29/2020 15:06:42 -81.31,-179.39 104.92 3.38 49
6 08/29/2020 15:56:56 81.33, -11.47 75.16 08/29/2020 15:57:22 81.32, -11.61 75.15 2.48 26
7 09/01/2020 10:41:45 -81.32,-112.76 103.83 09/01/2020 10:41:02 -81.32,-112.62 103.84 2.33 43
8 09/01/2020 11:31:11 81.33, 54.95 76.19 09/01/2020 11:31:42 81.32, 55.10 76.23 2.65 31
9 09/04/2020 06:15:59 -81.32, -46.36 102.79 09/04/2020 06:15:22 -81.32, -46.26 102.79 1.74 37



Historial Predications of SNOs between TERRA and METOP-C
